When you browse on this site, cookies collect data to enhance your experience and personalize the content and advertising you see.
Visit our Privacy Policy to learn more. By continuing to use the site, you agree to this use of cookies and data.
  • In Romania
  • List of Countries
  • For 7 days
  • Water Temperature
  • Satellite Maps
  • Weather Map
  • Weather Widgets
  • user-avatar
    Login

    Hourly Weather Senaki

    Today, 24 May, Friday

    Time Temperature Precipitation Wind Pressure Humidity
    00:00 +17°C° 0.1 mm 2 mps 759 mmHg 81%
    01:00 +17°C° 0 mm 2 mps 759 mmHg 80%
    02:00 +17°C° 0 mm 2 mps 759 mmHg 80%
    03:00 +17°C° 0 mm 2 mps 758 mmHg 79%
    04:00 +17°C° 0 mm 3 mps 758 mmHg 78%
    05:00 +18°C° 0 mm 3 mps 758 mmHg 77%
    06:00 +18°C° 0 mm 3 mps 758 mmHg 76%
    07:00 +20°C° 0 mm 3 mps 758 mmHg 68%
    08:00 +24°C° 0 mm 3 mps 757 mmHg 61%
    09:00 +26°C° 0 mm 3 mps 757 mmHg 53%
    10:00 +27°C° 0 mm 3 mps 757 mmHg 49%
    11:00 +29°C° 0 mm 2 mps 756 mmHg 45%
    12:00 +30°C° 0 mm 2 mps 756 mmHg 41%
    13:00 +31°C° 0 mm 2 mps 756 mmHg 40%
    14:00 +31°C° 0 mm 1 mps 756 mmHg 39%
    15:00 +32°C° 0 mm 1 mps 756 mmHg 38%
    16:00 +30°C° 0 mm 1 mps 755 mmHg 45%
    17:00 +29°C° 0 mm 1 mps 755 mmHg 51%
    18:00 +28°C° 0 mm 2 mps 755 mmHg 58%
    19:00 +27°C° 0 mm 2 mps 755 mmHg 58%
    20:00 +26°C° 0 mm 2 mps 756 mmHg 59%
    21:00 +25°C° 0 mm 3 mps 756 mmHg 59%
    22:00 +24°C° 0.2 mm 3 mps 756 mmHg 60%
    23:00 +23°C° 0.2 mm 4 mps 756 mmHg 61%

    Tomorrow, 25 May, Saturday

    Time Temperature Precipitation Wind Pressure Humidity
    00:00 +23°C° 0.2 mm 5 mps 756 mmHg 61%
    01:00 +23°C° 0 mm 5 mps 756 mmHg 54%
    02:00 +24°C° 0 mm 6 mps 755 mmHg 48%
    03:00 +26°C° 0 mm 6 mps 755 mmHg 41%
    04:00 +26°C° 0 mm 6 mps 755 mmHg 43%
    05:00 +24°C° 0 mm 6 mps 755 mmHg 44%
    06:00 +24°C° 0 mm 6 mps 755 mmHg 45%
    07:00 +27°C° 0 mm 7 mps 754 mmHg 44%
    08:00 +29°C° 0 mm 7 mps 754 mmHg 43%
    09:00 +32°C° 0 mm 7 mps 754 mmHg 42%
    10:00 +33°C° 0 mm 6 mps 754 mmHg 40%
    11:00 +34°C° 0 mm 6 mps 754 mmHg 37%
    12:00 +36°C° 0 mm 5 mps 754 mmHg 35%
    13:00 +33°C° 0 mm 6 mps 755 mmHg 45%
    14:00 +30°C° 0 mm 6 mps 755 mmHg 54%
    15:00 +27°C° 0 mm 7 mps 756 mmHg 64%
    16:00 +24°C° 0.8 mm 6 mps 756 mmHg 73%
    17:00 +22°C° 0.8 mm 4 mps 756 mmHg 82%
    18:00 +21°C° 0.8 mm 3 mps 757 mmHg 91%
    19:00 +20°C° 1 mm 2 mps 757 mmHg 93%
    20:00 +21°C° 1 mm 1 mps 758 mmHg 94%
    21:00 +18°C° 1 mm 0 mps 759 mmHg 95%
    22:00 +18°C° 0 mm 0 mps 759 mmHg 95%
    23:00 +18°C° 0 mm 0 mps 759 mmHg 96%

    Day after tomorrow, 26 May, Sunday

    Time Temperature Precipitation Wind Pressure Humidity
    00:00 +17°C° 0 mm 0 mps 759 mmHg 96%
    01:00 +17°C° 0 mm 0 mps 759 mmHg 95%
    02:00 +17°C° 0 mm 0 mps 759 mmHg 95%
    03:00 +16°C° 0 mm 0 mps 759 mmHg 95%
    04:00 +17°C° 0 mm 0 mps 759 mmHg 93%
    05:00 +17°C° 0 mm 0 mps 759 mmHg 92%
    06:00 +18°C° 0 mm 0 mps 759 mmHg 91%
    07:00 +21°C° 0 mm 1 mps 759 mmHg 85%
    08:00 +23°C° 0 mm 1 mps 759 mmHg 78%
    09:00 +24°C° 0 mm 1 mps 759 mmHg 72%
    10:00 +25°C° 0 mm 2 mps 759 mmHg 69%
    11:00 +26°C° 0 mm 3 mps 759 mmHg 65%
    12:00 +27°C° 0 mm 3 mps 759 mmHg 62%
    13:00 +26°C° 0 mm 4 mps 759 mmHg 62%
    14:00 +26°C° 0 mm 4 mps 759 mmHg 63%
    15:00 +26°C° 0 mm 4 mps 759 mmHg 64%
    16:00 +25°C° 0 mm 4 mps 759 mmHg 67%
    17:00 +23°C° 0 mm 4 mps 760 mmHg 71%
    18:00 +22°C° 0 mm 4 mps 760 mmHg 75%
    19:00 +21°C° 0.1 mm 3 mps 761 mmHg 81%
    20:00 +19°C° 0.1 mm 2 mps 761 mmHg 88%
    21:00 +19°C° 0.1 mm 1 mps 762 mmHg 95%
    22:00 +18°C° 0.2 mm 1 mps 762 mmHg 95%
    23:00 +18°C° 0.2 mm 1 mps 762 mmHg 95%

    27 May, Monday

    Time Temperature Precipitation Wind Pressure Humidity
    00:00 +16°C° 0.2 mm 0 mps 762 mmHg 95%
    01:00 +16°C° 0 mm 0 mps 763 mmHg 94%
    02:00 +16°C° 0 mm 1 mps 763 mmHg 94%
    03:00 +16°C° 0 mm 1 mps 763 mmHg 93%
    04:00 +18°C° 0 mm 1 mps 763 mmHg 91%
    05:00 +18°C° 0 mm 1 mps 763 mmHg 88%
    06:00 +18°C° 0 mm 1 mps 763 mmHg 86%
    07:00 +20°C° 0 mm 1 mps 763 mmHg 78%
    08:00 +22°C° 0 mm 1 mps 763 mmHg 70%
    09:00 +24°C° 0 mm 1 mps 763 mmHg 62%
    10:00 +25°C° 0 mm 1 mps 762 mmHg 58%
    11:00 +26°C° 0 mm 2 mps 762 mmHg 54%
    12:00 +27°C° 0 mm 2 mps 762 mmHg 50%
    13:00 +27°C° 0 mm 2 mps 762 mmHg 50%
    14:00 +27°C° 0 mm 3 mps 762 mmHg 51%
    15:00 +27°C° 0 mm 3 mps 762 mmHg 52%
    16:00 +27°C° 0 mm 3 mps 762 mmHg 56%
    17:00 +26°C° 0 mm 2 mps 762 mmHg 61%
    18:00 +25°C° 0 mm 2 mps 762 mmHg 66%
    19:00 +23°C° 0 mm 1 mps 763 mmHg 72%
    20:00 +21°C° 0 mm 1 mps 763 mmHg 79%
    21:00 +19°C° 0 mm 1 mps 764 mmHg 86%
    22:00 +19°C° 0 mm 1 mps 764 mmHg 85%
    23:00 +19°C° 0 mm 1 mps 764 mmHg 84%

    28 May, Tuesday

    Time Temperature Precipitation Wind Pressure Humidity
    00:00 +18°C° 0 mm 2 mps 764 mmHg 83%
    01:00 +18°C° 0 mm 2 mps 763 mmHg 80%
    02:00 +17°C° 0 mm 2 mps 763 mmHg 77%
    03:00 +17°C° 0 mm 2 mps 763 mmHg 75%
    04:00 +18°C° 0 mm 2 mps 763 mmHg 72%
    05:00 +18°C° 0 mm 2 mps 763 mmHg 70%
    06:00 +19°C° 0 mm 2 mps 763 mmHg 68%
    07:00 +22°C° 0 mm 3 mps 763 mmHg 60%
    08:00 +25°C° 0 mm 3 mps 762 mmHg 52%
    09:00 +28°C° 0 mm 4 mps 762 mmHg 44%
    10:00 +30°C° 0 mm 4 mps 761 mmHg 40%
    11:00 +32°C° 0 mm 4 mps 761 mmHg 37%
    12:00 +34°C° 0 mm 4 mps 761 mmHg 34%
    13:00 +34°C° 0 mm 3 mps 760 mmHg 33%
    14:00 +35°C° 0 mm 3 mps 760 mmHg 32%
    15:00 +35°C° 0 mm 2 mps 760 mmHg 32%
    16:00 +34°C° 0 mm 2 mps 760 mmHg 39%
    17:00 +32°C° 0 mm 1 mps 760 mmHg 45%
    18:00 +31°C° 0 mm 1 mps 760 mmHg 52%
    19:00 +29°C° 0 mm 1 mps 760 mmHg 56%
    20:00 +26°C° 0 mm 1 mps 761 mmHg 61%
    21:00 +24°C° 0 mm 2 mps 761 mmHg 65%
    22:00 +24°C° 0 mm 2 mps 761 mmHg 64%
    23:00 +23°C° 0 mm 2 mps 761 mmHg 63%

    29 May, Wednesday

    Time Temperature Precipitation Wind Pressure Humidity
    00:00 +23°C° 0 mm 2 mps 761 mmHg 62%
    01:00 +22°C° 0 mm 3 mps 761 mmHg 60%
    02:00 +22°C° 0 mm 3 mps 761 mmHg 58%
    03:00 +22°C° 0 mm 3 mps 761 mmHg 56%
    04:00 +22°C° 0 mm 3 mps 761 mmHg 57%
    05:00 +22°C° 0 mm 3 mps 761 mmHg 59%
    06:00 +22°C° 0 mm 3 mps 761 mmHg 61%
    07:00 +25°C° 0 mm 4 mps 761 mmHg 55%
    08:00 +28°C° 0 mm 4 mps 760 mmHg 50%
    09:00 +30°C° 0 mm 5 mps 760 mmHg 44%
    10:00 +33°C° 0 mm 4 mps 759 mmHg 41%
    11:00 +34°C° 0 mm 4 mps 759 mmHg 37%
    12:00 +36°C° 0 mm 3 mps 759 mmHg 33%
    13:00 +36°C° 0 mm 3 mps 759 mmHg 32%
    14:00 +37°C° 0 mm 2 mps 758 mmHg 31%
    15:00 +37°C° 0 mm 2 mps 758 mmHg 30%
    16:00 +35°C° 0 mm 1 mps 758 mmHg 36%
    17:00 +33°C° 0 mm 1 mps 758 mmHg 42%
    18:00 +32°C° 0 mm 1 mps 758 mmHg 49%
    19:00 +30°C° 0 mm 1 mps 759 mmHg 52%
    20:00 +27°C° 0 mm 1 mps 759 mmHg 56%
    21:00 +25°C° 0 mm 1 mps 760 mmHg 60%
    22:00 +24°C° 0 mm 1 mps 760 mmHg 61%
    23:00 +24°C° 0 mm 1 mps 760 mmHg 61%
    Show more